Weather History for Madison, MN

Change the Weather History Date:

Friday, May 17, 2013

  Actual Average (KAQP) Record (KAQP)
Temperature  
Mean Temperature 65 °F -  
Max Temperature 73 °F 65 °F 93 °F (2012)
Min Temperature 57 °F 43 °F 30 °F (2002)
Growing Degree Days 15 (Base 50)    
Moisture  
Dew Point 53 °F    
Average Humidity 66    
Maximum Humidity 88    
Minimum Humidity 37    
Precipitation  
Precipitation 0.00 in - - ()
Sea Level Pressure  
Sea Level Pressure 29.86 in    
Wind  
Wind Speed 13 mph (ESE)    
Max Wind Speed 23 mph    
Max Gust Speed 29 mph    
Visibility 10 miles    
Events      
Averages and records for this station are not official NWS values.
T = Trace of Precipitation, MM = Missing Value Source: NWS Daily Summary

Daily Weather History Graph

Daily Weather History Graph

Search for Another Location

Airport:

Trip Planner

Search our weather history database for the weather conditions in past years. The results will help you decide how hot, cold, wet, or windy it might be!

Date:

Astronomy

May. 17, 2013 Rise Set
Actual Time 5:53 AM CDT 8:49 PM CDT
Civil Twilight 5:18 AM CDT 9:24 PM CDT
Nautical Twilight 4:34 AM CDT 10:08 PM CDT
Astronomical Twilight 3:42 AM CDT 11:01 PM CDT
Moon 12:34 PM CDT (5/17) 1:35 AM CDT (5/17)
Length of Visible Light 16h 05m
Length of Day
14h 56m
Waxing Crescent, 45% of the Moon is Illuminated
May 17
Waxing Crescent
May 17
First Quarter
May 24
Full
May 31
Last Quarter
Jun 8
New

Hourly Weather History & Observations

Time (CDT) Temp. Dew Point Humidity Pressure Visibility Wind Dir Wind Speed Gust Speed Precip Events Conditions
12:14 AM 64.4 °F 48.2 °F 56% 29.84 in 10.0 mi East 3.5 mph - N/A   Overcast
12:33 AM 62.6 °F 48.2 °F 59% 29.85 in 10.0 mi ENE 8.1 mph - N/A   Overcast
12:54 AM 64.4 °F 46.4 °F 52% 29.86 in 10.0 mi East 10.4 mph - N/A   Overcast
1:14 AM 66.2 °F 42.8 °F 43% 29.86 in 10.0 mi ESE 13.8 mph - N/A   Overcast
1:33 AM 66.2 °F 41.0 °F 40% 29.86 in 10.0 mi ESE 18.4 mph - N/A   Overcast
1:54 AM 66.2 °F 41.0 °F 40% 29.86 in 10.0 mi SE 19.6 mph 25.3 mph N/A   Mostly Cloudy
2:14 AM 64.4 °F 39.2 °F 40% 29.86 in 10.0 mi ESE 17.3 mph 23.0 mph N/A   Mostly Cloudy
2:33 AM 64.4 °F 37.4 °F 37% 29.86 in 10.0 mi ESE 16.1 mph - N/A   Mostly Cloudy
2:54 AM 62.6 °F 39.2 °F 42% 29.85 in 10.0 mi ESE 11.5 mph - N/A   Mostly Cloudy
3:14 AM 60.8 °F 39.2 °F 45% 29.85 in 10.0 mi ESE 10.4 mph - N/A   Overcast
3:33 AM 62.6 °F 42.8 °F 48% 29.85 in 10.0 mi SE 12.7 mph - N/A   Mostly Cloudy
3:54 AM 60.8 °F 44.6 °F 55% 29.85 in 10.0 mi SE 9.2 mph - N/A   Scattered Clouds
4:13 AM 57.2 °F 44.6 °F 63% 29.85 in 10.0 mi SE 10.4 mph - N/A   Clear
4:34 AM 57.2 °F 44.6 °F 63% 29.84 in 10.0 mi SE 9.2 mph - N/A   Clear
4:54 AM 57.2 °F 46.4 °F 67% 29.85 in 10.0 mi SE 6.9 mph - N/A   Clear
5:13 AM 57.2 °F 46.4 °F 67% 29.85 in 10.0 mi SE 8.1 mph - N/A   Mostly Cloudy
5:34 AM 59.0 °F 46.4 °F 63% 29.86 in 10.0 mi SE 10.4 mph - N/A   Overcast
5:54 AM 59.0 °F 44.6 °F 59% 29.86 in 10.0 mi ESE 5.8 mph - N/A   Mostly Cloudy
6:13 AM 59.0 °F 44.6 °F 59% 29.87 in 10.0 mi ESE 8.1 mph - N/A   Overcast
6:33 AM 59.0 °F 44.6 °F 59% 29.87 in 10.0 mi ESE 8.1 mph - N/A   Mostly Cloudy
7:13 AM 59.0 °F 44.6 °F 59% 29.88 in 10.0 mi ESE 9.2 mph - N/A   Mostly Cloudy
7:33 AM 60.8 °F 46.4 °F 59% 29.89 in 10.0 mi ESE 8.1 mph - N/A   Mostly Cloudy
7:54 AM 60.8 °F 46.4 °F 59% 29.89 in 10.0 mi ESE 6.9 mph - N/A   Scattered Clouds
8:13 AM 60.8 °F 48.2 °F 63% 29.89 in 10.0 mi ESE 8.1 mph - N/A   Scattered Clouds
8:33 AM 60.8 °F 48.2 °F 63% 29.89 in 10.0 mi ESE 8.1 mph - N/A   Mostly Cloudy
8:54 AM 60.8 °F 51.8 °F 72% 29.89 in 10.0 mi ESE 12.7 mph - N/A   Scattered Clouds
9:13 AM 60.8 °F 53.6 °F 77% 29.89 in 10.0 mi ESE 10.4 mph - N/A   Scattered Clouds
9:33 AM 62.6 °F 53.6 °F 72% 29.89 in 10.0 mi ESE 12.7 mph - N/A   Scattered Clouds
9:53 AM 62.6 °F 55.4 °F 77% 29.89 in 10.0 mi ESE 11.5 mph - N/A   Scattered Clouds
10:14 AM 62.6 °F 55.4 °F 77% 29.89 in 10.0 mi ESE 13.8 mph - N/A   Clear
10:33 AM 62.6 °F 55.4 °F 77% 29.89 in 10.0 mi ESE 10.4 mph - N/A   Scattered Clouds
10:53 AM 62.6 °F 55.4 °F 77% 29.89 in 10.0 mi ESE 13.8 mph - N/A   Scattered Clouds
11:14 AM 62.6 °F 57.2 °F 82% 29.90 in 10.0 mi ESE 13.8 mph 18.4 mph N/A   Clear
11:33 AM 62.6 °F 57.2 °F 82% 29.89 in 10.0 mi ESE 17.3 mph - N/A   Clear
11:53 AM 64.4 °F 57.2 °F 77% 29.89 in 10.0 mi ESE 15.0 mph - N/A   Clear
12:14 PM 66.2 °F 57.2 °F 73% 29.89 in 10.0 mi SE 16.1 mph 20.7 mph N/A   Clear
12:33 PM 66.2 °F 57.2 °F 73% 29.89 in 10.0 mi ESE 17.3 mph - N/A   Clear
12:54 PM 64.4 °F 57.2 °F 77% 29.89 in 10.0 mi ESE 15.0 mph - N/A   Scattered Clouds
1:13 PM 66.2 °F 57.2 °F 73% 29.88 in 10.0 mi ESE 18.4 mph - N/A   Scattered Clouds
1:34 PM 69.8 °F 59.0 °F 68% 29.87 in 10.0 mi ESE 21.9 mph 25.3 mph N/A   Clear
2:13 PM 69.8 °F 60.8 °F 73% 29.86 in 10.0 mi ESE 19.6 mph 26.5 mph N/A   Clear
2:34 PM 69.8 °F 60.8 °F 73% 29.86 in 10.0 mi ESE 19.6 mph 26.5 mph N/A   Clear
2:53 PM 71.6 °F 60.8 °F 69% 29.85 in 10.0 mi ESE 20.7 mph 25.3 mph N/A   Clear
3:14 PM 69.8 °F 60.8 °F 73% 29.84 in 10.0 mi ESE 20.7 mph 26.5 mph N/A   Clear
3:34 PM 73.4 °F 60.8 °F 65% 29.84 in 10.0 mi SE 21.9 mph 26.5 mph N/A   Clear
3:53 PM 71.6 °F 60.8 °F 69% 29.84 in 10.0 mi ESE 19.6 mph 27.6 mph N/A   Clear
4:14 PM 73.4 °F 60.8 °F 65% 29.83 in 10.0 mi ESE 20.7 mph - N/A   Clear
4:34 PM 71.6 °F 59.0 °F 64% 29.83 in 10.0 mi ESE 19.6 mph 28.8 mph N/A   Clear
4:53 PM 73.4 °F 60.8 °F 65% 29.83 in 10.0 mi ESE 19.6 mph 26.5 mph N/A   Clear
5:14 PM 71.6 °F 59.0 °F 64% 29.83 in 10.0 mi ESE 19.6 mph 28.8 mph N/A   Scattered Clouds
5:33 PM 71.6 °F 59.0 °F 64% 29.83 in 10.0 mi ESE 20.7 mph 24.2 mph N/A   Clear
5:54 PM 69.8 °F 57.2 °F 64% 29.83 in 10.0 mi ESE 23.0 mph 27.6 mph N/A   Clear
6:14 PM 69.8 °F 57.2 °F 64% 29.84 in 10.0 mi ESE 21.9 mph 27.6 mph N/A   Clear
6:33 PM 68.0 °F 57.2 °F 68% 29.84 in 10.0 mi ESE 18.4 mph 27.6 mph N/A   Scattered Clouds
6:53 PM 68.0 °F 57.2 °F 68% 29.84 in 10.0 mi ESE 19.6 mph 24.2 mph N/A   Scattered Clouds
7:14 PM 68.0 °F 57.2 °F 68% 29.84 in 10.0 mi ESE 19.6 mph 25.3 mph N/A   Scattered Clouds
7:33 PM 66.2 °F 57.2 °F 73% 29.84 in 10.0 mi ESE 18.4 mph 23.0 mph N/A   Clear
7:53 PM 66.2 °F 57.2 °F 73% 29.84 in 10.0 mi ESE 17.3 mph - N/A   Scattered Clouds
8:14 PM 66.2 °F 57.2 °F 73% 29.84 in 10.0 mi ESE 18.4 mph - N/A   Mostly Cloudy
8:33 PM 64.4 °F 55.4 °F 73% 29.84 in 10.0 mi ESE 15.0 mph 18.4 mph N/A   Mostly Cloudy
8:53 PM 64.4 °F 55.4 °F 73% 29.85 in 10.0 mi ESE 16.1 mph - N/A   Mostly Cloudy
9:14 PM 64.4 °F 57.2 °F 77% 29.85 in 10.0 mi ESE 13.8 mph 18.4 mph N/A   Mostly Cloudy
9:33 PM 62.6 °F 55.4 °F 77% 29.86 in 10.0 mi ESE 15.0 mph - N/A   Mostly Cloudy
9:53 PM 62.6 °F 55.4 °F 77% 29.85 in 10.0 mi ESE 16.1 mph - N/A   Mostly Cloudy
10:14 PM 62.6 °F 57.2 °F 82% 29.86 in 10.0 mi ESE 13.8 mph - N/A   Mostly Cloudy
10:33 PM 62.6 °F 55.4 °F 77% 29.87 in 10.0 mi ESE 12.7 mph - N/A   Mostly Cloudy
10:53 PM 62.6 °F 55.4 °F 77% 29.86 in 7.0 mi ESE 13.8 mph - N/A   Mostly Cloudy
11:33 PM 60.8 °F 55.4 °F 82% 29.86 in 7.0 mi ESE 13.8 mph - N/A   Mostly Cloudy
11:53 PM 60.8 °F 57.2 °F 88% 29.85 in 7.0 mi ESE 13.8 mph - N/A   Mostly Cloudy